Location: Pitton
(51.0667°N, 1.7000°W)
Time: 15:48:11
(UTC+00:00)

Cosmos 1544 - Pass Details

Date: 17 September 2019
Orbit: 475 x 491 km, 82.5° (Epoch: 16 October)

Event Time Altitude Azimuth Distance (km) Brightness Sun altitude
Rises 19:39:29 0° 193° (SSW) 2,515 6.6 -13.4°
Reaches altitude 10° 19:41:33 10° 195° (SSW) 1,643 5.7 -13.7°
Maximum altitude 19:45:09 73° 281° (WNW) 504 3.2 -14.2°
Drops below altitude 10° 19:48:46 10° 7° (N) 1,663 6.0 -14.8°
Sets 19:50:53 0° 9° (N) 2,549 6.9 -15.1°
